Location: Namasale
(1.5000°N, 32.6167°E)
Time: 16:42:34
(UTC+00:00)

Milstar 3 Cent rocket - Pass Details

Date: 09 April 2020
Orbit: 706 x 5147 km, 28.3° (Epoch: 26 May)

Event Time Altitude Azimuth Distance (km) Brightness Sun altitude
Rises 17:20:19 0° 290° (WNW) 3,966 7.1 -21.9°
Reaches altitude 10° 17:22:28 10° 287° (WNW) 3,284 6.4 -22.4°
Maximum altitude 17:30:50 66° 206° (SSW) 2,171 4.2 -24.5°
Enters shadow 17:41:26 27° 133° (SE) 4,630 5.5 -27.1°
